Location: Recife
(8.0585°S, 34.8848°W)
Time: 13:14:57
(UTC-03:00)

Transit 4A - Pass Details

Date: 16 April 2026
Orbit: 861 x 980 km, 66.8° (Epoch: 12 May)

Event Time Altitude Azimuth Distance (km) Brightness Sun altitude
Rises 00:40:41 0° 339° (NNW) 3,652 - -69.8°
Reaches altitude 10° 00:43:16 10° 339° (NNW) 2,700 - -69.2°
Maximum altitude 00:49:35 85° 251° (WSW) 962 - -67.7°
Drops below altitude 10° 00:55:48 10° 162° (SSE) 2,647 - -66.1°
Sets 00:58:17 0° 161° (SSE) 3,576 - -65.5°
